www.pogodaiklimat.ru

ПОГОДА в Саммит Ли, MO

  • Прогноз погоды в Саммит Ли
  • Монитор погоды в Саммит Ли
  • Климат в Саммит Ли

АРХИВ ПОГОДЫ в Саммит Ли

Время (UTC), дата Ветер
(напр.,м/с)
 
Видим.   Явления Облачность Т
(С)
Тd
(С)
f
(%)
Тe
(С)
Тes
(С)
Комфортность

P
(гПа)

Po
(гПа)
Тmin
(С)
Tmax
(С)
R
(мм)
SD
(см)
21:53 21.05 Ю  7
{13} 
16 км    2/2 1050 м  +19.4  +15.0  76  +20  +22    997.1  961.8         
22:53 21.05 Ю  9
{13} 
16 км    ясно  +19.4  +13.9  70  +20  +20    997.1  961.8  +10.6  +19.4  3.6   
23:53 21.05 Ю  8
{13} 
16 км    ясно  +18.9  +13.9  73  +19  +19    997.7  962.2         
00:53 22.05 ЮВ  7
{11} 
16 км    ясно  +17.8  +13.3  75  +17  +17    998.5  962.8         
01:53 22.05 ЮВ  8
{11} 
16 км    ясно  +16.7  +12.8  78  +15  +15    998.9  963.5         
02:53 22.05 Ю  10
{16} 
16 км    ясно  +16.7  +12.2  75  +15  +15    999.0  963.5         
03:53 22.05 Ю  9
{14} 
16 км    ясно  +16.1  +12.2  78  +14  +14    999.3  963.8         
04:53 22.05 Ю  7
{13} 
16 км    ясно  +16.1  +12.2  78  +14  +14    999.3  963.8  +16.1  +19.4     
05:53 22.05 Ю  7
{11} 
16 км    ясно  +15.6  +11.7  78  +14  +14    1000.0  964.4         
06:53 22.05 Ю  6
{12} 
16 км    ясно  +15.0  +11.7  81  +13  +13    1000.6  965.1         
07:53 22.05 Ю  16 км    ясно  +14.4  +11.7  84  +12  +12    1001.2  965.8         
08:53 22.05 Ю  16 км    ясно  +14.4  +12.2  87  +12  +12    1002.0  966.4         
09:53 22.05 Ю  16 км    ясно  +14.4  +12.2  87  +12  +12    1002.6  967.1         
10:53 22.05 Ю  16 км    ясно  +14.4  +12.2  87  +13  +13    1003.7  968.0  +13.9  +16.1     
11:53 22.05 ЮЗ  4
{9} 
16 км    ясно  +15.6  +11.7  78  +14  +15    1004.6  969.0         
12:53 22.05 ЮЗ  16 км    ясно  +16.7  +11.1  70  +15  +16    1005.6  970.0         
13:53 22.05 ЮЗ  7
{11} 
16 км    ясно  +17.8  +11.1  65  +17  +18    1006.5  971.0         
14:53 22.05 ЮЗ  9
{13} 
16 км    ясно  +20.0  +11.7  59  +21  +21  комфорт  1007.0  971.3         
15:53 22.05 Ю  7
{11} 
16 км    2/2 1440 м  +21.7  +12.8  57  +24  +26  комфорт  1007.3  971.6         
16:53 22.05 ЮЗ  9
{17} 
16 км    ясно  +22.8  +12.2  51  +25  +26  комфорт  1007.3  972.0  +14.4  +22.8     
17:53 22.05 ЮЗ  9
{15} 
16 км    8/8 1080 м  +22.2  +13.9  59  +25  +25  комфорт  1007.7  972.3         
18:53 22.05 ЮЗ  7
{11} 
16 км    8/8 1200 м  +22.8  +15.6  64  +27  +28  душно  1008.2  972.6         
19:53 22.05 ЮЗ  16 км    10/10 900 м  +22.8  +16.7  68  +27  +27  душно  1008.4  972.9         
20:17 22.05 З  16 км    10/10 840 м  +23.3  +17.2  69  +29  +29  душно    972.9         
20:35 22.05 З  16 км    8/8 840 м  +23.3  +16.7  66  +28  +30  душно    972.6         
20:53 22.05 З  16 км    8/8 870 м  +22.2  +16.7  71  +27  +28  душно  1008.5  972.9         
21:34 22.05 З  16 км  слабый дождь  10/10 870 м  +21.7  +16.7  73  +26  +26  душно    972.9         
21:53 22.05 З  16 км    10/10 840 м  +21.1  +16.7  76  +25  +25  комфорт  1009.1  973.3         
22:26 22.05 З  16 км    10/8 870 м
[средняя] 
+20.6  +16.7  78  +24  +24  комфорт    972.9         
22:53 22.05 СЗ  16 км  гроза, слабый дождь  10/8 870 м
[средняя] 
+20.0  +16.7  81  +23  +23  комфорт  1008.3  972.6  +20.0  +23.9  1.3   
23:00 22.05 З  6 км  гроза со слабым дождем, дымка  10/10 870 м  +19.4  +17.2  87  +22  +22  комфорт    973.6         
23:06 22.05 З  3 км  гроза с дождем  10/10 810 м  +19.4  +16.7  84  +21  +21  комфорт    973.6         
23:16 22.05 З  1 км  гроза с сильным дождем, дымка  10/10 870 м  +18.3  +16.1  87  +18  +18      973.3         
23:19 22.05 З  2 км  гроза с сильным дождем, дымка  10/10 780 м  +18.3  +16.1  87  +19  +19      973.3         
23:29 22.05 З  6 км  гроза со слабым дождем, дымка  8/8 660 м  +18.3  +16.7  90  +19  +19      972.9         
23:43 22.05 З  14 км  гроза, слабый дождь  8/5 1050 м
[средняя] 
+18.3  +17.2  93  +19  +20               
23:51 22.05 З  16 км  слабый дождь  8/5 1200 м
[средняя] 
+18.0  +17.0  94  +18  +19      973.3         
23:53 22.05 З  16 км  слабый дождь  8/8 1200 м  +18.3  +16.7  90  +19  +19    1009.1  973.3         
00:53 23.05   16 км    8/8 1440 м  +17.8  +16.7  93  +18  +18    1009.9  974.2         
01:53 23.05 нст  16 км    10/10 1290 м  +18.9  +16.1  84  +20  +20    1011.4  975.5      9.7   
02:26 23.05   16 км  гроза  8/8 1350 м  +17.8  +15.6  87  +18  +18      976.5         
02:53 23.05 С  16 км    5/5 1410 м  +17.8  +15.6  87  +18  +18    1012.4  976.5         
03:53 23.05   16 км    8/0 2400 м
[средняя] 
+16.7  +15.6  93  +17  +17    1013.4  977.8         
04:53 23.05   16 км    10/0 2100 м
[средняя] 
+17.8  +15.0  84  +18  +18    1015.0  979.1  +16.1  +19.4  9.7   
05:53 23.05   16 км    ясно  +16.1  +13.3  83  +16  +16    1015.1  979.1         
06:53 23.05 СВ  16 км    ясно  +15.6  +13.9  90  +15  +15    1014.8  979.1         
07:53 23.05 С  16 км    ясно  +13.9  +11.7  87  +13  +13    1015.1  979.1         
08:53 23.05 СВ  16 км    2/0 2550 м
[средняя] 
+13.9  +12.2  89  +13  +13    1015.4  979.5         

 

Местоположение метеостанции Lee`s Summit Municipal Airport: широта 38.9597 долгота -94.3717 высота над уровнем моря 306 м.

В архиве по умолчанию представлена погода в Саммит Ли за последние 1-2 суток. Обновление информации о фактической погоде в базе происходит ежечасно! Архивные данные за месяц целиком и за предыдущие месяцы Вы можете получить, выбрав интересующий диапазон дат из раскрывающегося списка и нажав кнопку "Ввод!".

Внимание! Архив погоды МЕТАР в базе сайта хранится не более 60 дней. Нет смысла пытаться выбрать более раннюю дату.

Внимание! Время в таблицах - всемирное. Для получения местного времени необходимо прибавить поправку, которая в Саммит Ли равна -6 ч.

Ветер - указаны скорость ветра в м/с и направление, откуда дует ветер: С - северный, СВ - северо-восточный, В - восточный, ЮВ - юго-восточный, Ю - южный, ЮЗ - юго-западный, З - западный, СЗ - северо-западный.
Видимость - горизонтальная дальность видимости в метрах или километрах. При видимости от 1 до 10 км при отсутствии осадков обычно наблюдается дымка, при ухудшении видимости до 1 км и менее - туман. В сухую погоду видимость может ухудшаться дымом, пылью или мглою.
Атмосферные явления - указаны явления, наблюдавшиеся в указанный момент времени.
Облачность - указаны через наклонную черту верхняя и нижняя облачность в баллах и высота нижней границы облаков в метрах. Внимание: облачность, как и прочие метеорологические величины в США измеряются автоматическими метеостанциями. Указанные значения в баллах носят условный характер и показывают процент времени, в течение которого, в среднем, лазерный луч высотомера отражался от облаков обратно.
T - Температура воздуха - температура, измеренная на высоте 2 м над землей.
Td - Температура точки росы - температура, при понижении до которой содержащийся в воздухе водяной пар достигнет насыщения.
f - Относительная влажность воздуха - влажноcть воздуха, измеренная на высоте 2 м над землей.
Te - Эффективная температура - температура, которую ощущает одетый по сезону человек в тени. Характеристика душности погоды. При расчете учитывается влияние влажности воздуха и скорости ветра на теплоощущения человека.
Tes - Эффективная температура на солнце - температура, которую ощущает человек, с поправкой на солнечный нагрев. Характеристика знойности погоды. Зависит от высоты солнца над горизонтом, облачности и скорости ветра. Ночью, в пасмурную погоду, а также при ветре 12 м/с и более поправка равна нулю.
P - Атмосферное давление - приведенное к уровню моря атмосферное давление.
Po - Атмосферное давление - измеренное на уровне метеостанции атмосферное давление.
Tmin - Минимальная температура - минимум температуры воздуха на высоте 2 м над землей.
Tmax - Максимальная температура - максимум температуры воздуха на высоте 2 м над землей.
R - Количество осадков - Количество выпавших осадков за 3 или 6 часов, мм.
SD - Снежный покров - Высота снежного покрова, см.